Location: Mount Cross
(36.6390°N, 79.4878°W)
Time: 00:47:57
(UTC+00:00)

SR - Pass Details

Date: 07 April 2023
Orbit: 580 x 867 km, 66.7° (Epoch: 08 June)

Event Time Altitude Azimuth Distance (km) Brightness Sun altitude
Rises 14:11:08 0° 321° (NW) 2,860 ? 37.7°
Reaches altitude 10° 14:13:30 10° 310° (NW) 1,983 ? 38.2°
Maximum altitude 14:17:25 31° 249° (WSW) 1,135 ? 38.9°
Drops below altitude 10° 14:21:35 10° 187° (S) 2,107 ? 39.7°
Sets 14:24:11 0° 178° (S) 3,071 ? 40.1°
